| time (UTC) | temp F | wind direction | speed knots | gust knots | rain 1hr in | rain 24hr in | rain mn in | humidity % | barometer mb |
| 20260831010059 | 67 | 201 | 0.0 | 0.9 | 0.00 | 0.00 | 0.00 | 83 | 1017.3 |
| 20260831004545 | 68 | 201 | 0.0 | 0.0 | 0.00 | 0.00 | 0.00 | 83 | 1017.0 |
| 20260831003045 | 68 | 201 | 0.0 | 0.0 | 0.00 | 0.00 | 0.00 | 82 | 1016.9 |
| 20260831001545 | 68 | 201 | 0.0 | 1.7 | 0.00 | 0.00 | 0.00 | 81 | 1016.6 |
| 20260831000046 | 68 | 207 | 0.9 | 5.2 | 0.00 | 0.00 | 0.00 | 81 | 1016.4 |
| 20260830234543 | 68 | 200 | 0.0 | 7.0 | 0.00 | 0.00 | 0.00 | 81 | 1016.4 |
| 20260830233044 | 68 | 207 | 0.0 | 4.3 | 0.00 | 0.00 | 0.00 | 80 | 1016.2 |
| 20260830231543 | 69 | 216 | 1.7 | 6.1 | 0.00 | 0.00 | 0.00 | 80 | 1016.2 |
| 20260830230042 | 69 | 221 | 0.9 | 2.6 | 0.00 | 0.00 | 0.00 | 81 | 1016.2 |
| 20260830224542 | 69 | 126 | 0.0 | 2.6 | 0.00 | 0.00 | 0.00 | 80 | 1016.2 |
| 20260830223042 | 69 | 148 | 0.0 | 2.6 | 0.00 | 0.00 | 0.00 | 80 | 1016.0 |
| 20260830221541 | 69 | 163 | 0.0 | 0.9 | 0.00 | 0.00 | 0.00 | 79 | 1016.1 |
| 20260830220040 | 70 | 207 | 0.0 | 3.5 | 0.00 | 0.00 | 0.00 | 78 | 1016.1 |
| 20260830214540 | 71 | 215 | 0.0 | 1.7 | 0.00 | 0.00 | 0.00 | 76 | 1016.1 |
| 20260830213053 | 71 | 225 | 0.0 | 5.2 | 0.00 | 0.00 | 0.00 | 74 | 1015.9 |
| 20260830211540 | 72 | 230 | 0.9 | 4.3 | 0.00 | 0.00 | 0.00 | 72 | 1016.0 |
| 20260830210039 | 72 | 213 | 0.0 | 2.6 | 0.00 | 0.00 | 0.00 | 72 | 1015.9 |
| 20260830204542 | 72 | 203 | 0.0 | 2.6 | 0.00 | 0.00 | 0.00 | 70 | 1015.9 |
| 20260830203037 | 73 | 203 | 0.0 | 2.6 | 0.00 | 0.00 | 0.00 | 69 | 1015.9 |
| 20260830201536 | 73 | 203 | 0.9 | 2.6 | 0.00 | 0.00 | 0.00 | 67 | 1016.0 |
| 20260830200034 | 74 | 202 | 0.9 | 4.3 | 0.00 | 0.00 | 0.00 | 66 | 1016.1 |
| 20260830194535 | 75 | 207 | 0.0 | 2.6 | 0.00 | 0.00 | 0.00 | 65 | 1016.2 |
| 20260830193035 | 75 | 252 | 0.0 | 2.6 | 0.00 | 0.00 | 0.00 | 64 | 1016.3 |
| 20260830191535 | 75 | 198 | 0.9 | 4.3 | 0.00 | 0.00 | 0.00 | 65 | 1016.4 |
| 20260830190029 | 75 | 305 | 0.0 | 3.5 | 0.00 | 0.00 | 0.00 | 66 | 1016.7 |
| 20260830184537 | 75 | 175 | 0.9 | 1.7 | 0.00 | 0.00 | 0.00 | 64 | 1016.8 |
| 20260830183025 | 74 | 205 | 0.0 | 3.5 | 0.00 | 0.00 | 0.00 | 64 | 1016.9 |
| 20260830181522 | 74 | 299 | 0.9 | 3.5 | 0.00 | 0.00 | 0.00 | 67 | 1017.0 |
| 20260830180020 | 73 | 144 | 0.0 | 2.6 | 0.00 | 0.00 | 0.00 | 66 | 1017.2 |
| 20260830174518 | 73 | 34 | 0.0 | 3.5 | 0.00 | 0.00 | 0.00 | 68 | 1017.4 |
| 20260830173014 | 72 | 260 | 0.0 | 3.5 | 0.00 | 0.00 | 0.00 | 69 | 1017.8 |
| 20260830171511 | 71 | 348 | 0.9 | 2.6 | 0.00 | 0.00 | 0.00 | 70 | 1018.0 |
| 20260830170007 | 71 | 257 | 0.9 | 2.6 | 0.00 | 0.00 | 0.00 | 71 | 1018.2 |
| 20260830164505 | 70 | 307 | 0.9 | 2.6 | 0.00 | 0.00 | 0.00 | 72 | 1018.2 |
| 20260830163004 | 69 | 214 | 0.0 | 0.0 | 0.00 | 0.00 | 0.00 | 74 | 1018.4 |
| 20260830161504 | 69 | 213 | 0.0 | 1.7 | 0.00 | 0.00 | 0.00 | 73 | 1018.7 |
| 20260830160004 | 69 | 200 | 0.0 | 2.6 | 0.00 | 0.00 | 0.00 | 72 | 1018.8 |
| 20260830154503 | 69 | 203 | 0.0 | 1.7 | 0.00 | 0.00 | 0.00 | 73 | 1018.9 |
| 20260830153002 | 69 | 203 | 0.0 | 5.2 | 0.00 | 0.00 | 0.00 | 73 | 1019.0 |
| 20260830151502 | 69 | 194 | 1.7 | 4.3 | 0.00 | 0.00 | 0.00 | 73 | 1019.3 |
| 20260830150001 | 70 | 195 | 0.0 | 0.0 | 0.00 | 0.00 | 0.00 | 72 | 1018.2 |
| 20260830144557 | 70 | 195 | 0.0 | 1.7 | 0.00 | 0.00 | 0.00 | 71 | 1018.8 |
| 20260830143056 | 70 | 192 | 0.9 | 5.2 | 0.00 | 0.00 | 0.00 | 69 | 1019.1 |
| 20260830141556 | 69 | 135 | 0.9 | 7.0 | 0.00 | 0.00 | 0.00 | 72 | 1019.1 |
| 20260830140049 | 67 | 132 | 0.0 | 2.6 | 0.00 | 0.00 | 0.00 | 78 | 1019.3 |
| 20260830134546 | 65 | 188 | 0.0 | 2.6 | 0.00 | 0.00 | 0.00 | 85 | 1019.3 |
| 20260830133046 | 63 | 211 | 0.0 | 3.5 | 0.00 | 0.00 | 0.00 | 90 | 1019.5 |
| 20260830131538 | 61 | 205 | 0.0 | 1.7 | 0.00 | 0.00 | 0.00 | 92 | 1019.3 |
| 20260830130034 | 60 | 203 | 0.0 | 0.0 | 0.00 | 0.00 | 0.00 | 93 | 1019.6 |
| 20260830124530 | 59 | 203 | 0.0 | 0.0 | 0.00 | 0.00 | 0.00 | 93 | 1019.6 |
| 20260830123027 | 58 | 203 | 0.0 | 0.9 | 0.00 | 0.00 | 0.00 | 94 | 1019.6 |
| 20260830121524 | 57 | 203 | 0.0 | 1.7 | 0.00 | 0.00 | 0.00 | 94 | 1019.7 |
| 20260830120024 | 56 | 203 | 0.0 | 2.6 | 0.00 | 0.00 | 0.00 | 93 | 1019.8 |
| 20260830114518 | 55 | 203 | 0.0 | 0.9 | 0.00 | 0.00 | 0.00 | 93 | 1019.6 |
| 20260830113018 | 55 | 203 | 0.0 | 1.7 | 0.00 | 0.00 | 0.00 | 93 | 1019.9 |
| 20260830111516 | 54 | 203 | 0.0 | 0.9 | 0.00 | 0.00 | 0.00 | 93 | 1020.0 |
| 20260830110015 | 54 | 203 | 0.0 | 0.9 | 0.00 | 0.00 | 0.00 | 93 | 1020.0 |
| 20260830104514 | 53 | 202 | 0.0 | 0.9 | 0.00 | 0.00 | 0.00 | 93 | 1019.9 |
| 20260830103014 | 53 | 202 | 0.0 | 0.0 | 0.00 | 0.00 | 0.00 | 93 | 1020.1 |
| 20260830101533 | 53 | 202 | 0.0 | 0.0 | 0.00 | 0.00 | 0.00 | 93 | 1020.1 |
| 20260830100012 | 53 | 202 | 0.0 | 0.0 | 0.00 | 0.00 | 0.00 | 93 | 1020.0 |
| 20260830094612 | 53 | 202 | 0.0 | 0.0 | 0.00 | 0.00 | 0.00 | 93 | 1020.1 |
| 20260830093010 | 53 | 202 | 0.0 | 0.0 | 0.00 | 0.00 | 0.00 | 92 | 1020.1 |
| 20260830091511 | 53 | 202 | 0.0 | 0.0 | 0.00 | 0.00 | 0.00 | 92 | 1020.2 |
| 20260830090029 | 53 | 202 | 0.0 | 0.0 | 0.00 | 0.00 | 0.00 | 92 | 1020.2 |
| 20260830084521 | 53 | 202 | 0.0 | 0.0 | 0.00 | 0.00 | 0.00 | 92 | 1020.1 |
| 20260830083027 | 53 | 202 | 0.0 | 0.9 | 0.00 | 0.00 | 0.00 | 92 | 1020.2 |
| 20260830081508 | 53 | 202 | 0.0 | 0.0 | 0.00 | 0.00 | 0.00 | 92 | 1020.1 |
| 20260830080007 | 53 | 202 | 0.0 | 3.5 | 0.00 | 0.00 | 0.00 | 92 | 1020.2 |
| 20260830074505 | 53 | 202 | 0.0 | 0.0 | 0.00 | 0.00 | 0.00 | 92 | 1020.3 |
| 20260830073005 | 53 | 202 | 0.0 | 0.0 | 0.00 | 0.00 | 0.00 | 92 | 1020.3 |
| 20260830071503 | 53 | 202 | 0.0 | 0.9 | 0.00 | 0.00 | 0.00 | 91 | 1020.4 |
| 20260830070003 | 53 | 202 | 0.0 | 0.9 | 0.00 | 0.00 | 0.00 | 91 | 1020.5 |
| 20260830064502 | 53 | 202 | 0.0 | 0.0 | 0.00 | 0.00 | 0.00 | 91 | 1020.4 |
| 20260830063100 | 53 | 202 | 0.0 | 0.0 | 0.00 | 0.00 | 0.00 | 91 | 1020.4 |
| 20260830061559 | 53 | 202 | 0.0 | 0.0 | 0.00 | 0.00 | 0.00 | 91 | 1020.4 |
| 20260830060057 | 54 | 202 | 0.0 | 0.0 | 0.00 | 0.00 | 0.00 | 91 | 1020.6 |
| 20260830054603 | 54 | 202 | 0.0 | 0.0 | 0.00 | 0.00 | 0.00 | 91 | 1020.6 |
| 20260830053054 | 54 | 202 | 0.0 | 0.0 | 0.00 | 0.00 | 0.00 | 91 | 1020.7 |
| 20260830051555 | 54 | 202 | 0.0 | 0.9 | 0.00 | 0.00 | 0.00 | 91 | 1020.7 |
| 20260830050054 | 54 | 202 | 0.0 | 0.9 | 0.00 | 0.00 | 0.00 | 91 | 1020.7 |
| 20260830044610 | 55 | 202 | 0.0 | 0.9 | 0.00 | 0.00 | 0.00 | 90 | 1020.6 |
| 20260830043055 | 55 | 202 | 0.0 | 1.7 | 0.00 | 0.00 | 0.00 | 90 | 1020.6 |
| 20260830041623 | 55 | 202 | 0.0 | 0.9 | 0.00 | 0.00 | 0.00 | 89 | 1020.6 |
| 20260830040057 | 55 | 202 | 0.0 | 0.0 | 0.00 | 0.00 | 0.00 | 89 | 1020.8 |
| 20260830034557 | 55 | 202 | 0.0 | 0.0 | 0.00 | 0.00 | 0.00 | 89 | 1020.6 |
| 20260830033048 | 56 | 202 | 0.0 | 0.0 | 0.00 | 0.00 | 0.00 | 89 | 1020.6 |
| 20260830031548 | 56 | 202 | 0.0 | 0.0 | 0.00 | 0.00 | 0.00 | 88 | 1020.7 |
| 20260830030113 | 56 | 202 | 0.0 | 0.0 | 0.00 | 0.00 | 0.00 | 88 | 1020.7 |
| 20260830024547 | 57 | 202 | 0.0 | 0.0 | 0.00 | 0.00 | 0.00 | 88 | 1020.7 |
| 20260830023047 | 57 | 202 | 0.0 | 0.0 | 0.00 | 0.00 | 0.00 | 87 | 1020.7 |
| 20260830021547 | 58 | 202 | 0.0 | 0.0 | 0.00 | 0.00 | 0.00 | 87 | 1020.6 |
| 20260830020045 | 58 | 202 | 0.0 | 0.9 | 0.00 | 0.00 | 0.00 | 85 | 1020.6 |
| 20260830014603 | 59 | 202 | 0.0 | 0.0 | 0.00 | 0.00 | 0.00 | 84 | 1020.6 |
| 20260830013059 | 59 | 202 | 0.0 | 0.0 | 0.00 | 0.00 | 0.00 | 83 | 1020.7 |
| 20260830011546 | 60 | 202 | 0.0 | 0.0 | 0.00 | 0.00 | 0.00 | 82 | 1020.6 |